Location: *
(40.9167°N, 9.5000°E)
Time: 08:31:33
(UTC+00:00)

SL-16 R/B - Pass Details

Date: 09 April 2020
Orbit: 842 x 846 km, 71.0° (Epoch: 03 June)

Event Time Altitude Azimuth Distance (km) Brightness Sun altitude
Rises 21:31:13 0° 347° (NNW) 3,412 6.2 -34.7°
Reaches altitude 10° 21:34:14 10° 2° (N) 2,474 5.2 -35.0°
Enters shadow 21:36:59 20° 29° (NNE) 1,870 4.2 -35.3°
